Find Kosmos-2232

NORAD ID: 22321 Int'l Des: 1993-006 Owner: PVO Country: RU operational
MEOELLIPTICALHEO_ELLIPTICALSEMI_SYNC

リアルタイム位置

3D地球を読み込み中...

Kosmos-2232について

説明を読み込み中...

次回通過

Passes for default location (London). Set your location on the main map for personalized predictions.

高度履歴

Loading altitude history...

軌道要素

1 22321U 93006A 26106.64560593 -.00000032 00000-0 00000-0 0 9997
2 22321 67.2228 187.5530 5438428 126.8673 296.3038 2.00342172243163
Epoch: Apr 16, 2026 • Age: 28 hours

現在のステータス

高度 21459.1 km
速度 3.70 km/s
衛星直下点 -62.38°S, 80.89°W
打ち上げ日 Jan 26, 1993
運用期間 33.2 years
タイプ other

技術仕様

分類 Payload
質量 1250.00 kg
乾燥質量 1150.00 kg
総質量 1250.00 kg
長さ 4.00 m
直径 2.00 m
スパン 5.00 m
形状 Cyl + 2 Pan
製造者 NPOL/KOMET
バスタイプ Oko
フェーズステータス In Orbit
所有者/国 PVO/RU

Most Searched